Time,TemperatureF,DewpointF,PressureIn,WindDirection,WindDirectionDegrees,WindSpeedMPH,WindSpeedGustMPH,Humidity,HourlyPrecipIn,Conditions,Clouds,dailyrainin,SoftwareType,DateUTC
2013-05-30 00:01:00,72.0,63.2,29.94,SSE,159,2.4,2.4,74,0.00,,CLR,0.00,VWS V14.01,2013-05-30 04:01:00,
2013-05-30 00:02:00,72.0,63.2,29.95,SSE,158,0.0,5.9,74,0.00,,CLR,0.00,VWS V14.01,2013-05-30 04:02:00,
2013-05-30 00:07:00,71.8,63.0,29.95,SSE,159,0.0,2.4,74,0.00,,CLR,0.00,VWS V14.01,2013-05-30 04:07:00,
2013-05-30 00:12:00,71.8,63.0,29.95,SSE,147,0.0,2.4,74,0.00,,CLR,0.00,VWS V14.01,2013-05-30 04:12:00,
2013-05-30 00:17:00,71.6,62.8,29.95,SSE,161,2.4,2.4,74,0.00,,CLR,0.00,VWS V14.01,2013-05-30 04:17:00,
2013-05-30 00:22:00,71.5,62.7,29.95,SSE,147,2.4,2.4,74,0.00,,CLR,0.00,VWS V14.01,2013-05-30 04:22:00,
2013-05-30 00:27:00,71.5,62.7,29.95,SSE,149,0.0,5.9,74,0.00,,CLR,0.00,VWS V14.01,2013-05-30 04:27:00,
2013-05-30 00:32:00,71.3,62.5,29.95,SSE,150,0.0,1.2,74,0.00,,CLR,0.00,VWS V14.01,2013-05-30 04:32:00,
2013-05-30 00:37:00,71.1,62.3,29.95,SSE,150,0.0,2.4,74,0.00,,CLR,0.00,VWS V14.01,2013-05-30 04:37:00,
2013-05-30 00:42:00,70.9,62.1,29.96,SSE,149,1.2,1.2,74,0.00,,CLR,0.00,VWS V14.01,2013-05-30 04:42:00,
2013-05-30 00:47:00,70.9,62.1,29.96,SSE,152,0.0,0.0,74,0.00,,CLR,0.00,VWS V14.01,2013-05-30 04:47:00,
2013-05-30 00:52:00,70.8,62.0,29.96,SSE,152,0.0,1.2,74,0.00,,CLR,0.00,VWS V14.01,2013-05-30 04:52:00,
2013-05-30 00:57:00,70.6,61.8,29.96,SSE,151,0.0,1.2,74,0.00,,CLR,0.00,VWS V14.01,2013-05-30 04:57:00,
2013-05-30 01:02:00,70.4,61.6,29.96,SSE,151,0.0,0.0,74,0.00,,CLR,0.00,VWS V14.01,2013-05-30 05:02:00,
2013-05-30 01:07:00,70.3,61.5,29.96,SSE,151,0.0,0.0,74,0.00,,CLR,0.00,VWS V14.01,2013-05-30 05:07:00,
2013-05-30 01:12:00,70.1,61.7,29.96,SSE,151,0.0,0.0,75,0.00,,CLR,0.00,VWS V14.01,2013-05-30 05:12:00,
2013-05-30 01:17:00,69.9,61.5,29.96,SSE,151,0.0,0.0,75,0.00,,CLR,0.00,VWS V14.01,2013-05-30 05:17:00,
2013-05-30 01:22:00,69.8,61.4,29.96,SSE,151,0.0,0.0,75,0.00,,CLR,0.00,VWS V14.01,2013-05-30 05:22:00,
2013-05-30 01:27:00,69.6,61.6,29.97,SSE,151,0.0,0.0,76,0.00,,CLR,0.00,VWS V14.01,2013-05-30 05:27:00,
2013-05-30 01:32:00,69.4,61.4,29.96,SSE,151,0.0,0.0,76,0.00,,CLR,0.00,VWS V14.01,2013-05-30 05:32:00,
2013-05-30 01:37:00,69.3,61.3,29.97,SSE,151,0.0,0.0,76,0.00,,CLR,0.00,VWS V14.01,2013-05-30 05:37:00,
2013-05-30 01:42:00,69.1,61.1,29.97,SSE,151,0.0,1.2,76,0.00,,CLR,0.00,VWS V14.01,2013-05-30 05:42:00,
2013-05-30 01:47:00,68.9,61.3,29.97,SE,142,0.0,2.4,77,0.00,,CLR,0.00,VWS V14.01,2013-05-30 05:47:00,
2013-05-30 01:52:00,68.8,61.2,29.97,SE,142,0.0,0.0,77,0.00,,CLR,0.00,VWS V14.01,2013-05-30 05:52:00,
2013-05-30 01:57:00,68.6,61.0,29.97,SE,142,0.0,0.0,77,0.00,,CLR,0.00,VWS V14.01,2013-05-30 05:57:00,
2013-05-30 02:02:00,68.6,61.0,29.97,SE,142,0.0,0.0,77,0.00,,CLR,0.00,VWS V14.01,2013-05-30 06:02:00,
2013-05-30 02:07:00,68.4,61.2,29.97,SE,142,0.0,0.0,78,0.00,,CLR,0.00,VWS V14.01,2013-05-30 06:07:00,
2013-05-30 02:12:00,68.4,61.2,29.97,SE,142,0.0,1.2,78,0.00,,CLR,0.00,VWS V14.01,2013-05-30 06:12:00,
2013-05-30 02:17:00,68.3,61.1,29.97,SE,142,2.4,2.4,78,0.00,,CLR,0.00,VWS V14.01,2013-05-30 06:17:00,
2013-05-30 02:22:00,68.1,60.9,29.97,SE,142,0.0,4.7,78,0.00,,CLR,0.00,VWS V14.01,2013-05-30 06:22:00,
2013-05-30 02:27:00,68.1,61.3,29.97,SE,142,0.0,0.0,79,0.00,,CLR,0.00,VWS V14.01,2013-05-30 06:27:00,
2013-05-30 02:32:00,68.1,61.3,29.97,SE,142,0.0,0.0,79,0.00,,CLR,0.00,VWS V14.01,2013-05-30 06:32:00,
2013-05-30 02:37:00,68.1,61.3,29.97,SE,142,0.0,1.2,79,0.00,,CLR,0.00,VWS V14.01,2013-05-30 06:37:00,
2013-05-30 02:42:00,68.1,61.6,29.98,SE,142,0.0,0.0,80,0.00,,CLR,0.00,VWS V14.01,2013-05-30 06:42:00,
2013-05-30 02:47:00,68.1,61.6,29.97,SE,142,1.2,1.2,80,0.00,,CLR,0.00,VWS V14.01,2013-05-30 06:47:00,
2013-05-30 02:52:00,68.1,61.6,29.97,SE,140,1.2,2.4,80,0.00,,CLR,0.00,VWS V14.01,2013-05-30 06:52:00,
2013-05-30 02:57:00,68.1,61.6,29.97,SE,140,1.2,2.4,80,0.00,,CLR,0.00,VWS V14.01,2013-05-30 06:57:00,
2013-05-30 03:02:00,68.1,61.6,29.97,SE,139,1.2,1.2,80,0.00,,CLR,0.00,VWS V14.01,2013-05-30 07:02:00,
2013-05-30 03:07:00,68.1,62.0,29.97,SSE,153,4.7,4.7,81,0.00,,CLR,0.00,VWS V14.01,2013-05-30 07:07:00,
2013-05-30 03:12:00,68.1,62.0,29.97,SSE,153,0.0,2.4,81,0.00,,CLR,0.00,VWS V14.01,2013-05-30 07:12:00,
2013-05-30 03:17:00,68.3,62.2,29.97,SSE,153,0.0,2.4,81,0.00,,CLR,0.00,VWS V14.01,2013-05-30 07:17:00,
2013-05-30 03:22:00,68.3,62.2,29.96,SE,133,0.0,1.2,81,0.00,,CLR,0.00,VWS V14.01,2013-05-30 07:22:00,
2013-05-30 03:27:00,68.3,62.2,29.96,SE,134,4.7,4.7,81,0.00,,CLR,0.00,VWS V14.01,2013-05-30 07:27:00,
2013-05-30 03:32:00,68.3,62.2,29.96,SE,130,0.0,1.2,81,0.00,,CLR,0.00,VWS V14.01,2013-05-30 07:32:00,
2013-05-30 03:37:00,68.3,62.2,29.96,SE,130,2.4,2.4,81,0.00,,CLR,0.00,VWS V14.01,2013-05-30 07:37:00,
2013-05-30 03:42:00,68.3,62.2,29.96,SE,131,0.0,1.2,81,0.00,,CLR,0.00,VWS V14.01,2013-05-30 07:42:00,
2013-05-30 03:47:00,68.3,62.2,29.96,SE,131,0.0,4.7,81,0.00,,CLR,0.00,VWS V14.01,2013-05-30 07:47:00,
2013-05-30 03:52:00,68.3,62.2,29.96,SE,131,0.0,1.2,81,0.00,,CLR,0.00,VWS V14.01,2013-05-30 07:52:00,
2013-05-30 03:57:00,68.3,62.2,29.96,SE,131,0.0,1.2,81,0.00,,CLR,0.00,VWS V14.01,2013-05-30 07:57:00,
2013-05-30 04:02:00,68.3,62.2,29.96,SE,134,1.2,4.7,81,0.00,,CLR,0.00,VWS V14.01,2013-05-30 08:02:00,
2013-05-30 04:07:00,68.1,62.0,29.96,SE,134,1.2,1.2,81,0.00,,CLR,0.00,VWS V14.01,2013-05-30 08:07:00,
2013-05-30 04:12:00,68.1,62.0,29.96,SE,142,0.0,1.2,81,0.00,,CLR,0.00,VWS V14.01,2013-05-30 08:12:00,
2013-05-30 04:17:00,68.1,62.3,29.96,SE,129,0.0,1.2,82,0.00,,CLR,0.00,VWS V14.01,2013-05-30 08:17:00,
2013-05-30 04:22:00,68.1,62.3,29.96,SE,133,0.0,4.7,82,0.00,,CLR,0.00,VWS V14.01,2013-05-30 08:22:00,
2013-05-30 04:27:00,68.1,62.3,29.96,SE,134,0.0,2.4,82,0.00,,CLR,0.00,VWS V14.01,2013-05-30 08:27:00,
2013-05-30 04:32:00,68.1,62.3,29.96,SE,134,0.0,2.4,82,0.00,,CLR,0.00,VWS V14.01,2013-05-30 08:32:00,
2013-05-30 04:37:00,68.1,62.3,29.96,SE,133,2.4,4.7,82,0.00,,CLR,0.00,VWS V14.01,2013-05-30 08:37:00,
2013-05-30 04:42:00,68.1,62.7,29.96,SE,129,0.0,1.2,83,0.00,,CLR,0.00,VWS V14.01,2013-05-30 08:42:00,
2013-05-30 04:47:00,67.9,62.5,29.96,SE,132,2.4,5.9,83,0.00,,CLR,0.00,VWS V14.01,2013-05-30 08:47:00,
2013-05-30 04:52:00,67.9,62.5,29.96,SE,133,1.2,5.9,83,0.00,,CLR,0.00,VWS V14.01,2013-05-30 08:52:00,
2013-05-30 04:57:00,67.9,62.5,29.96,SE,129,0.0,2.4,83,0.00,,CLR,0.00,VWS V14.01,2013-05-30 08:57:00,
2013-05-30 05:02:00,67.9,62.5,29.96,SE,130,2.4,5.9,83,0.00,,CLR,0.00,VWS V14.01,2013-05-30 09:02:00,
2013-05-30 05:07:00,67.9,62.5,29.96,SE,132,2.4,5.9,83,0.00,,CLR,0.00,VWS V14.01,2013-05-30 09:07:00,
2013-05-30 05:12:00,67.9,62.5,29.96,SE,131,2.4,7.1,83,0.00,,CLR,0.00,VWS V14.01,2013-05-30 09:12:00,
2013-05-30 05:17:00,67.9,62.8,29.97,SE,140,0.0,4.7,84,0.00,,CLR,0.00,VWS V14.01,2013-05-30 09:17:00,
2013-05-30 05:22:00,67.9,62.8,29.97,SE,143,1.2,4.7,84,0.00,,CLR,0.00,VWS V14.01,2013-05-30 09:22:00,
2013-05-30 05:27:00,67.9,62.8,29.97,SSE,165,0.0,1.2,84,0.00,,CLR,0.00,VWS V14.01,2013-05-30 09:27:00,
2013-05-30 05:32:00,67.9,62.8,29.97,South,169,0.0,4.7,84,0.00,,CLR,0.00,VWS V14.01,2013-05-30 09:32:00,
2013-05-30 05:37:00,67.9,62.8,29.98,SE,144,4.7,4.7,84,0.00,,CLR,0.00,VWS V14.01,2013-05-30 09:37:00,
2013-05-30 05:42:00,67.9,62.8,29.98,SSE,159,1.2,2.4,84,0.00,,CLR,0.00,VWS V14.01,2013-05-30 09:42:00,
2013-05-30 05:47:00,67.9,63.2,29.98,SSE,155,1.2,5.9,85,0.00,,CLR,0.00,VWS V14.01,2013-05-30 09:47:00,
2013-05-30 05:52:00,67.9,63.2,29.98,SE,144,1.2,4.7,85,0.00,,CLR,0.00,VWS V14.01,2013-05-30 09:52:00,
2013-05-30 05:57:00,67.9,63.2,29.98,SE,138,0.0,2.4,85,0.00,,CLR,0.00,VWS V14.01,2013-05-30 09:57:00,
2013-05-30 06:02:00,67.8,63.1,29.98,WSW,242,1.2,3.5,85,0.00,,CLR,0.00,VWS V14.01,2013-05-30 10:02:00,
2013-05-30 06:07:00,67.8,63.1,29.98,SSW,213,0.0,0.0,85,0.00,,CLR,0.00,VWS V14.01,2013-05-30 10:07:00,
2013-05-30 06:12:00,67.8,63.1,29.98,SSW,213,1.2,2.4,85,0.00,,CLR,0.00,VWS V14.01,2013-05-30 10:12:00,
2013-05-30 06:17:00,67.8,63.1,29.98,SSE,168,5.9,5.9,85,0.00,,CLR,0.00,VWS V14.01,2013-05-30 10:17:00,
2013-05-30 06:22:00,67.8,63.1,29.98,SSE,150,2.4,4.7,85,0.00,,CLR,0.00,VWS V14.01,2013-05-30 10:22:00,
2013-05-30 06:27:00,67.8,63.1,29.98,South,182,2.4,5.9,85,0.00,,CLR,0.00,VWS V14.01,2013-05-30 10:27:00,
2013-05-30 06:32:00,67.8,63.1,29.98,SE,145,1.2,2.4,85,0.00,,CLR,0.00,VWS V14.01,2013-05-30 10:32:00,
2013-05-30 06:37:00,67.8,63.4,29.98,SSE,166,0.0,5.9,86,0.00,,CLR,0.00,VWS V14.01,2013-05-30 10:37:00,
2013-05-30 06:42:00,67.8,63.4,29.98,SSE,147,1.2,1.2,86,0.00,,CLR,0.00,VWS V14.01,2013-05-30 10:42:00,
2013-05-30 06:47:00,67.9,63.5,29.98,SSW,198,3.5,7.1,86,0.00,,CLR,0.00,VWS V14.01,2013-05-30 10:47:00,
2013-05-30 06:52:00,67.9,63.5,29.98,SSE,168,5.9,7.1,86,0.00,,CLR,0.00,VWS V14.01,2013-05-30 10:52:00,
2013-05-30 06:57:00,68.1,63.7,29.98,SSE,165,1.2,1.2,86,0.00,,CLR,0.00,VWS V14.01,2013-05-30 10:57:00,
2013-05-30 07:02:00,68.1,63.7,29.98,SSE,161,2.4,4.7,86,0.00,,CLR,0.00,VWS V14.01,2013-05-30 11:02:00,
2013-05-30 07:07:00,68.3,63.9,29.98,South,177,4.7,4.7,86,0.00,,CLR,0.00,VWS V14.01,2013-05-30 11:07:00,
2013-05-30 07:12:00,68.3,63.9,29.98,SSE,152,2.4,4.7,86,0.00,,CLR,0.00,VWS V14.01,2013-05-30 11:12:00,
2013-05-30 07:17:00,68.4,64.0,29.98,SSE,157,5.9,5.9,86,0.00,,CLR,0.00,VWS V14.01,2013-05-30 11:17:00,
2013-05-30 07:22:00,68.6,64.2,29.98,South,190,1.2,4.7,86,0.00,,CLR,0.00,VWS V14.01,2013-05-30 11:22:00,
2013-05-30 07:27:00,68.8,64.7,29.98,SSW,196,9.4,10.6,87,0.00,,CLR,0.00,VWS V14.01,2013-05-30 11:27:00,
2013-05-30 07:33:00,69.1,65.0,29.98,SSE,163,2.4,4.7,87,0.00,,CLR,0.00,VWS V14.01,2013-05-30 11:33:00,
2013-05-30 07:38:00,69.6,65.5,29.98,South,180,1.2,3.5,87,0.00,,CLR,0.00,VWS V14.01,2013-05-30 11:38:00,
2013-05-30 07:43:00,70.1,65.7,29.98,SE,145,5.9,9.4,86,0.00,,CLR,0.00,VWS V14.01,2013-05-30 11:43:00,
2013-05-30 07:48:00,70.6,65.8,29.98,SSW,196,4.7,9.4,85,0.00,,CLR,0.00,VWS V14.01,2013-05-30 11:48:00,
2013-05-30 07:53:00,71.1,66.0,29.98,SSW,198,2.4,8.3,84,0.00,,BKN090,0.00,VWS V14.01,2013-05-30 11:53:00,
2013-05-30 07:58:00,71.6,66.1,29.98,South,186,9.4,9.4,83,0.00,,BKN090,0.00,VWS V14.01,2013-05-30 11:58:00,
2013-05-30 08:03:00,72.1,66.2,29.98,SSE,164,10.6,14.2,82,0.00,,BKN090,0.00,VWS V14.01,2013-05-30 12:03:00,
2013-05-30 08:08:00,72.7,66.1,29.98,SSE,166,9.4,10.6,80,0.00,,BKN090,0.00,VWS V14.01,2013-05-30 12:08:00,
2013-05-30 08:13:00,73.2,65.8,29.98,South,183,5.9,10.6,78,0.00,,BKN090,0.00,VWS V14.01,2013-05-30 12:13:00,
2013-05-30 08:18:00,73.5,65.8,29.98,SSW,212,8.3,8.3,77,0.00,,BKN090,0.00,VWS V14.01,2013-05-30 12:18:00,
2013-05-30 08:23:00,73.9,65.8,29.98,SSW,213,5.9,9.4,76,0.00,,BKN090,0.00,VWS V14.01,2013-05-30 12:23:00,
2013-05-30 08:28:00,74.2,65.7,29.98,South,176,10.6,10.6,75,0.00,,BKN090,0.00,VWS V14.01,2013-05-30 12:28:00,
2013-05-30 08:33:00,74.6,66.1,29.98,SW,227,5.9,10.6,75,0.00,,BKN090,0.00,VWS V14.01,2013-05-30 12:33:00,
2013-05-30 08:38:00,74.7,65.8,29.98,SSW,207,5.9,9.4,74,0.00,,BKN090,0.00,VWS V14.01,2013-05-30 12:38:00,
2013-05-30 08:43:00,74.9,66.0,29.98,SSW,193,10.6,10.6,74,0.00,,BKN090,0.00,VWS V14.01,2013-05-30 12:43:00,
2013-05-30 08:48:00,75.1,66.2,29.98,SE,136,15.3,16.5,74,0.00,,BKN090,0.00,VWS V14.01,2013-05-30 12:48:00,
2013-05-30 08:53:00,75.3,65.9,29.98,South,174,11.8,11.8,73,0.00,,BKN090,0.00,VWS V14.01,2013-05-30 12:53:00,
2013-05-30 08:58:00,75.4,66.0,29.98,South,187,14.2,14.2,73,0.00,,BKN090,0.00,VWS V14.01,2013-05-30 12:58:00,
2013-05-30 09:03:00,75.4,66.0,29.98,South,171,8.3,15.3,73,0.00,,FEW100,0.00,VWS V14.01,2013-05-30 13:03:00,
2013-05-30 09:08:00,75.4,66.0,29.98,SSW,197,10.6,13.0,73,0.00,,FEW100,0.00,VWS V14.01,2013-05-30 13:08:00,
2013-05-30 09:13:00,75.4,66.0,29.99,South,180,5.9,14.2,73,0.00,,FEW100,0.00,VWS V14.01,2013-05-30 13:13:00,
2013-05-30 09:18:00,75.4,66.0,29.99,SSE,161,13.0,14.2,73,0.00,,FEW100,0.00,VWS V14.01,2013-05-30 13:18:00,
2013-05-30 09:23:00,75.4,66.0,29.99,SSE,156,5.9,9.4,73,0.00,,FEW100,0.00,VWS V14.01,2013-05-30 13:23:00,
2013-05-30 09:28:00,75.4,66.4,29.99,South,185,5.9,14.2,74,0.00,,FEW100,0.00,VWS V14.01,2013-05-30 13:28:00,
2013-05-30 09:33:00,75.6,66.2,29.99,South,169,5.9,10.6,73,0.00,,FEW100,0.00,VWS V14.01,2013-05-30 13:33:00,
2013-05-30 09:38:00,75.8,66.4,29.99,SSE,163,11.8,14.2,73,0.00,,FEW100,0.00,VWS V14.01,2013-05-30 13:38:00,
2013-05-30 09:43:00,76.1,66.7,29.99,SSW,201,8.3,13.0,73,0.00,,FEW100,0.00,VWS V14.01,2013-05-30 13:43:00,
2013-05-30 09:48:00,76.3,66.5,29.99,SSE,150,9.4,20.1,72,0.00,,FEW100,0.00,VWS V14.01,2013-05-30 13:48:00,
2013-05-30 09:53:00,76.8,66.6,29.98,South,191,11.8,15.3,71,0.00,,CLR,0.00,VWS V14.01,2013-05-30 13:53:00,
2013-05-30 09:58:00,77.2,66.5,29.98,SSW,212,4.7,13.0,70,0.00,,CLR,0.00,VWS V14.01,2013-05-30 13:58:00,
2013-05-30 10:03:00,77.6,67.3,29.98,SE,146,14.2,15.3,71,0.00,,CLR,0.00,VWS V14.01,2013-05-30 14:03:00,
2013-05-30 10:08:00,78.3,67.2,29.98,SE,144,13.0,14.2,69,0.00,,CLR,0.00,VWS V14.01,2013-05-30 14:08:00,
2013-05-30 10:13:00,78.6,67.9,29.98,SSW,204,14.2,17.7,70,0.00,,CLR,0.00,VWS V14.01,2013-05-30 14:13:00,
2013-05-30 10:18:00,78.6,67.0,29.97,SSW,209,4.7,10.6,68,0.00,,CLR,0.00,VWS V14.01,2013-05-30 14:18:00,
2013-05-30 10:23:00,78.8,67.6,29.98,South,186,7.1,13.0,69,0.00,,CLR,0.00,VWS V14.01,2013-05-30 14:23:00,
2013-05-30 10:28:00,79.2,67.6,29.97,SSW,194,13.0,13.0,68,0.00,,CLR,0.00,VWS V14.01,2013-05-30 14:28:00,
2013-05-30 10:33:00,79.2,68.0,29.98,South,173,16.5,18.9,69,0.00,,CLR,0.00,VWS V14.01,2013-05-30 14:33:00,
2013-05-30 10:38:00,79.0,67.8,29.97,SSE,148,7.1,11.8,69,0.00,,CLR,0.00,VWS V14.01,2013-05-30 14:38:00,
2013-05-30 10:43:00,79.4,68.2,29.97,SSE,168,10.6,15.3,69,0.00,,CLR,0.00,VWS V14.01,2013-05-30 14:43:00,
2013-05-30 10:48:00,79.6,68.0,29.98,SSW,196,4.7,8.3,68,0.00,,CLR,0.00,VWS V14.01,2013-05-30 14:48:00,
2013-05-30 10:53:00,79.9,68.3,29.97,SSW,192,8.3,8.3,68,0.00,,FEW090,0.00,VWS V14.01,2013-05-30 14:53:00,
2013-05-30 10:58:00,80.7,69.5,29.97,South,183,5.9,7.1,69,0.00,,FEW090,0.00,VWS V14.01,2013-05-30 14:58:00,
2013-05-30 11:03:00,81.4,69.2,29.97,SE,126,9.4,13.0,67,0.00,,FEW090,0.00,VWS V14.01,2013-05-30 15:03:00,
2013-05-30 11:08:00,81.2,69.1,29.97,WSW,246,8.3,8.3,67,0.00,,FEW090,0.00,VWS V14.01,2013-05-30 15:08:00,
2013-05-30 11:13:00,81.1,69.0,29.97,SE,134,7.1,13.0,67,0.00,,FEW090,0.00,VWS V14.01,2013-05-30 15:13:00,
2013-05-30 11:18:00,81.1,69.0,29.97,SSE,165,10.6,17.7,67,0.00,,FEW090,0.00,VWS V14.01,2013-05-30 15:18:00,
2013-05-30 11:23:00,81.4,68.3,29.96,South,179,9.4,10.6,65,0.00,,FEW090,0.00,VWS V14.01,2013-05-30 15:23:00,
2013-05-30 11:28:00,82.0,69.4,29.96,South,176,16.5,16.5,66,0.00,,FEW090,0.00,VWS V14.01,2013-05-30 15:28:00,
2013-05-30 11:33:00,82.6,69.5,29.96,SSW,208,7.1,11.8,65,0.00,,FEW090,0.00,VWS V14.01,2013-05-30 15:33:00,
2013-05-30 11:38:00,83.0,69.4,29.96,South,172,9.4,10.6,64,0.00,,FEW090,0.00,VWS V14.01,2013-05-30 15:38:00,
2013-05-30 11:43:00,83.2,68.7,29.96,South,172,13.0,17.7,62,0.00,,FEW090,0.00,VWS V14.01,2013-05-30 15:43:00,
2013-05-30 11:48:00,82.6,68.1,29.96,SSW,205,9.4,16.5,62,0.00,,FEW090,0.00,VWS V14.01,2013-05-30 15:48:00,
2013-05-30 11:53:00,82.4,69.3,29.96,SSE,167,4.7,14.2,65,0.00,,CLR,0.00,VWS V14.01,2013-05-30 15:53:00,
2013-05-30 11:58:00,82.6,69.0,29.96,SSW,192,5.9,13.0,64,0.00,,CLR,0.00,VWS V14.01,2013-05-30 15:58:00,
2013-05-30 12:03:00,82.8,68.8,29.96,South,184,3.5,10.6,63,0.00,,CLR,0.00,VWS V14.01,2013-05-30 16:03:00,
2013-05-30 12:08:00,83.2,69.6,29.95,South,177,10.6,10.6,64,0.00,,CLR,0.00,VWS V14.01,2013-05-30 16:08:00,
2013-05-30 12:13:00,83.0,68.5,29.96,South,170,11.8,22.4,62,0.00,,CLR,0.00,VWS V14.01,2013-05-30 16:13:00,
2013-05-30 12:18:00,82.6,68.6,29.96,SSW,196,16.5,17.7,63,0.00,,CLR,0.00,VWS V14.01,2013-05-30 16:18:00,
2013-05-30 12:23:00,82.4,68.4,29.96,SSW,208,13.0,16.5,63,0.00,,CLR,0.00,VWS V14.01,2013-05-30 16:23:00,
2013-05-30 12:28:00,82.6,69.0,29.96,SE,144,10.6,18.9,64,0.00,,CLR,0.00,VWS V14.01,2013-05-30 16:28:00,
2013-05-30 12:33:00,83.0,68.9,29.96,South,171,9.4,16.5,63,0.00,,CLR,0.00,VWS V14.01,2013-05-30 16:33:00,
2013-05-30 12:38:00,83.6,68.6,29.96,South,178,11.8,17.7,61,0.00,,CLR,0.00,VWS V14.01,2013-05-30 16:38:00,
2013-05-30 12:43:00,84.0,68.4,29.96,SSE,155,9.4,14.2,60,0.00,,CLR,0.00,VWS V14.01,2013-05-30 16:43:00,
2013-05-30 12:48:00,83.6,68.1,29.96,SSE,167,21.2,26.0,60,0.00,,CLR,0.00,VWS V14.01,2013-05-30 16:48:00,
2013-05-30 12:53:00,83.0,68.0,29.96,SSW,196,13.0,15.3,61,0.00,,,0.00,VWS V14.01,2013-05-30 16:53:00,
2013-05-30 12:58:00,82.8,67.3,29.96,SSW,200,15.3,21.2,60,0.00,,,0.00,VWS V14.01,2013-05-30 16:58:00,
2013-05-30 13:03:00,82.6,67.1,29.96,SSW,195,8.3,13.0,60,0.00,,,0.00,VWS V14.01,2013-05-30 17:03:00,
2013-05-30 13:08:00,82.6,67.1,29.96,South,184,9.4,16.5,60,0.00,,,0.00,VWS V14.01,2013-05-30 17:08:00,
2013-05-30 13:13:00,82.4,67.4,29.96,South,169,10.6,10.6,61,0.00,,,0.00,VWS V14.01,2013-05-30 17:13:00,
2013-05-30 13:18:00,82.2,67.2,29.96,SSE,157,5.9,11.8,61,0.00,,,0.00,VWS V14.01,2013-05-30 17:18:00,
2013-05-30 13:23:00,82.0,67.5,29.96,SSE,163,7.1,16.5,62,0.00,,,0.00,VWS V14.01,2013-05-30 17:23:00,
2013-05-30 13:28:00,82.0,67.5,29.96,SSW,194,3.5,13.0,62,0.00,,,0.00,VWS V14.01,2013-05-30 17:28:00,
2013-05-30 13:33:00,82.0,67.5,29.95,South,188,3.5,10.6,62,0.00,,,0.00,VWS V14.01,2013-05-30 17:33:00,
2013-05-30 13:38:00,82.0,67.5,29.95,South,182,5.9,5.9,62,0.00,,,0.00,VWS V14.01,2013-05-30 17:38:00,
2013-05-30 13:43:00,82.0,67.5,29.95,South,188,4.7,4.7,62,0.00,,,0.00,VWS V14.01,2013-05-30 17:43:00,
2013-05-30 13:48:00,82.2,67.7,29.95,South,173,10.6,10.6,62,0.00,,,0.00,VWS V14.01,2013-05-30 17:48:00,
2013-05-30 13:53:00,82.6,67.6,29.95,SW,229,8.3,14.2,61,0.00,,SCT100,0.00,VWS V14.01,2013-05-30 17:53:00,
2013-05-30 13:58:00,83.0,67.0,29.95,South,173,8.3,11.8,59,0.00,,SCT100,0.00,VWS V14.01,2013-05-30 17:58:00,
2013-05-30 14:03:00,83.6,67.6,29.95,SSW,200,13.0,14.2,59,0.00,,SCT100,0.00,VWS V14.01,2013-05-30 18:03:00,
2013-05-30 14:08:00,84.3,66.7,29.94,South,169,7.1,10.6,56,0.00,,SCT100,0.00,VWS V14.01,2013-05-30 18:08:00,
2013-05-30 14:13:00,84.7,67.1,29.94,ESE,122,7.1,10.6,56,0.00,,SCT100,0.00,VWS V14.01,2013-05-30 18:13:00,
2013-05-30 14:18:00,84.7,67.6,29.94,South,184,7.1,17.7,57,0.00,,SCT100,0.00,VWS V14.01,2013-05-30 18:18:00,
2013-05-30 14:23:00,84.5,66.9,29.94,SW,218,15.3,27.1,56,0.00,,SCT100,0.00,VWS V14.01,2013-05-30 18:23:00,
2013-05-30 14:28:00,84.3,67.2,29.94,SW,221,7.1,10.6,57,0.00,,SCT100,0.00,VWS V14.01,2013-05-30 18:28:00,
2013-05-30 14:33:00,84.0,65.9,29.94,South,172,11.8,17.7,55,0.00,,SCT100,0.00,VWS V14.01,2013-05-30 18:33:00,
2013-05-30 14:38:00,83.8,66.2,29.94,SW,223,3.5,11.8,56,0.00,,SCT100,0.00,VWS V14.01,2013-05-30 18:38:00,
2013-05-30 14:43:00,83.6,66.0,29.93,SSW,194,7.1,7.1,56,0.00,,SCT100,0.00,VWS V14.01,2013-05-30 18:43:00,
2013-05-30 14:48:00,84.1,66.5,29.94,SW,215,5.9,10.6,56,0.00,,SCT100,0.00,VWS V14.01,2013-05-30 18:48:00,
2013-05-30 14:53:00,84.7,66.0,29.93,South,182,3.5,22.4,54,0.00,,FEW050,0.00,VWS V14.01,2013-05-30 18:53:00,
2013-05-30 14:58:00,84.7,64.9,29.93,SSW,201,27.1,31.9,52,0.00,,FEW050,0.00,VWS V14.01,2013-05-30 18:58:00,
2013-05-30 15:03:00,84.3,65.6,29.94,SE,125,9.4,15.3,54,0.00,,FEW050,0.00,VWS V14.01,2013-05-30 19:03:00,
2013-05-30 15:08:00,84.0,65.3,29.93,SSW,213,15.3,26.0,54,0.00,,FEW050,0.00,VWS V14.01,2013-05-30 19:08:00,
2013-05-30 15:13:00,84.1,66.0,29.93,South,177,13.0,18.9,55,0.00,,FEW050,0.00,VWS V14.01,2013-05-30 19:13:00,
2013-05-30 15:18:00,84.0,65.9,29.93,South,182,14.2,17.7,55,0.00,,FEW050,0.00,VWS V14.01,2013-05-30 19:18:00,
2013-05-30 15:23:00,84.0,67.4,29.93,SSW,207,10.6,14.2,58,0.00,,FEW050,0.00,VWS V14.01,2013-05-30 19:23:00,
2013-05-30 15:28:00,84.1,66.5,29.93,South,178,11.8,20.1,56,0.00,,FEW050,0.00,VWS V14.01,2013-05-30 19:28:00,
2013-05-30 15:34:00,84.0,66.9,29.93,SSW,198,18.9,18.9,57,0.00,,FEW050,0.00,VWS V14.01,2013-05-30 19:34:00,
2013-05-30 15:39:00,84.1,67.0,29.93,SSW,195,14.2,17.7,57,0.00,,FEW050,0.00,VWS V14.01,2013-05-30 19:39:00,
2013-05-30 15:44:00,84.3,67.7,29.93,SSW,210,13.0,17.7,58,0.00,,FEW050,0.00,VWS V14.01,2013-05-30 19:44:00,
2013-05-30 15:49:00,84.7,66.0,29.93,SSW,207,3.5,11.8,54,0.00,,FEW050,0.00,VWS V14.01,2013-05-30 19:49:00,
2013-05-30 15:54:00,85.1,66.3,29.93,SSW,209,11.8,21.2,54,0.00,,BKN110,0.00,VWS V14.01,2013-05-30 19:54:00,
2013-05-30 15:59:00,85.3,67.1,29.92,South,170,5.9,8.3,55,0.00,,BKN110,0.00,VWS V14.01,2013-05-30 19:59:00,
2013-05-30 16:04:00,86.1,67.8,29.92,SSW,201,4.7,10.6,55,0.00,,BKN110,0.00,VWS V14.01,2013-05-30 20:04:00,
2013-05-30 16:09:00,85.9,66.0,29.91,SSW,196,18.9,22.4,52,0.00,,BKN110,0.00,VWS V14.01,2013-05-30 20:09:00,
2013-05-30 16:14:00,85.1,66.9,29.91,South,186,21.2,23.6,55,0.00,,BKN110,0.00,VWS V14.01,2013-05-30 20:14:00,
2013-05-30 16:19:00,84.5,66.9,29.91,SSW,203,13.0,23.6,56,0.00,,BKN110,0.00,VWS V14.01,2013-05-30 20:19:00,
2013-05-30 16:24:00,84.5,66.3,29.91,SSW,203,20.1,20.1,55,0.00,,BKN110,0.00,VWS V14.01,2013-05-30 20:24:00,
2013-05-30 16:29:00,84.5,66.9,29.91,SSE,168,11.8,15.3,56,0.00,,BKN110,0.00,VWS V14.01,2013-05-30 20:29:00,
2013-05-30 16:34:00,84.5,66.3,29.91,South,187,13.0,17.7,55,0.00,,BKN110,0.00,VWS V14.01,2013-05-30 20:34:00,
2013-05-30 16:39:00,84.9,66.7,29.90,SSE,168,10.6,21.2,55,0.00,,BKN110,0.00,VWS V14.01,2013-05-30 20:39:00,
2013-05-30 16:44:00,84.9,69.3,29.91,SE,145,8.3,16.5,60,0.00,,BKN110,0.00,VWS V14.01,2013-05-30 20:44:00,
2013-05-30 16:49:00,83.2,68.2,29.91,SW,215,4.7,11.8,61,0.00,,BKN110,0.00,VWS V14.01,2013-05-30 20:49:00,
2013-05-30 16:54:00,82.6,69.0,29.90,SSW,212,3.5,10.6,64,0.00,,BKN060,0.00,VWS V14.01,2013-05-30 20:54:00,
2013-05-30 16:59:00,83.0,69.4,29.90,SSW,211,5.9,7.1,64,0.00,,BKN060,0.00,VWS V14.01,2013-05-30 20:59:00,
2013-05-30 17:04:00,82.6,69.0,29.90,SSW,209,5.9,7.1,64,0.00,,BKN060,0.00,VWS V14.01,2013-05-30 21:04:00,
2013-05-30 17:09:00,82.6,69.0,29.90,South,182,1.2,7.1,64,0.00,,BKN060,0.00,VWS V14.01,2013-05-30 21:09:00,
2013-05-30 17:14:00,82.8,68.8,29.90,SSE,163,8.3,8.3,63,0.00,,BKN060,0.00,VWS V14.01,2013-05-30 21:14:00,
2013-05-30 17:19:00,82.6,67.6,29.89,South,169,9.4,14.2,61,0.00,,BKN060,0.00,VWS V14.01,2013-05-30 21:19:00,
2013-05-30 17:24:00,83.2,69.1,29.89,SSW,205,0.0,5.9,63,0.00,,BKN060,0.00,VWS V14.01,2013-05-30 21:24:00,
2013-05-30 17:29:00,84.0,68.4,29.89,South,185,14.2,14.2,60,0.00,,BKN060,0.00,VWS V14.01,2013-05-30 21:29:00,
2013-05-30 17:34:00,84.5,67.9,29.88,SSE,157,4.7,8.3,58,0.00,,BKN060,0.00,VWS V14.01,2013-05-30 21:34:00,
2013-05-30 17:39:00,84.9,68.8,29.88,SW,226,5.9,10.6,59,0.00,,BKN060,0.00,VWS V14.01,2013-05-30 21:39:00,
2013-05-30 17:44:00,85.1,67.9,29.88,South,178,4.7,10.6,57,0.00,,BKN075,0.00,VWS V14.01,2013-05-30 21:44:00,
2013-05-30 17:49:00,84.7,67.6,29.88,SSW,205,8.3,8.3,57,0.00,,BKN075,0.00,VWS V14.01,2013-05-30 21:49:00,
2013-05-30 17:54:00,84.5,67.9,29.88,SSE,151,7.1,15.3,58,0.00,,BKN075,0.00,VWS V14.01,2013-05-30 21:54:00,
2013-05-30 17:59:00,84.0,68.4,29.87,SSW,194,7.1,11.8,60,0.00,,BKN075,0.00,VWS V14.01,2013-05-30 21:59:00,
2013-05-30 18:04:00,84.1,68.5,29.87,SSE,151,16.5,16.5,60,0.00,,FEW047,0.00,VWS V14.01,2013-05-30 22:04:00,
2013-05-30 18:09:00,84.1,68.0,29.87,South,174,9.4,11.8,59,0.00,,FEW047,0.00,VWS V14.01,2013-05-30 22:09:00,
2013-05-30 18:14:00,84.5,66.3,29.87,South,188,14.2,16.5,55,0.00,,FEW047,0.00,VWS V14.01,2013-05-30 22:14:00,
2013-05-30 18:19:00,84.5,66.3,29.87,SSE,161,5.9,8.3,55,0.00,,FEW047,0.00,VWS V14.01,2013-05-30 22:19:00,
2013-05-30 18:24:00,84.1,66.0,29.88,SW,221,5.9,10.6,55,0.00,,FEW047,0.00,VWS V14.01,2013-05-30 22:24:00,
2013-05-30 18:29:00,83.8,65.7,29.88,SSW,192,15.3,15.3,55,0.00,,FEW047,0.00,VWS V14.01,2013-05-30 22:29:00,
2013-05-30 18:34:00,83.4,65.8,29.87,SSW,207,5.9,10.6,56,0.00,,FEW047,0.00,VWS V14.01,2013-05-30 22:34:00,
2013-05-30 18:39:00,84.0,66.4,29.87,South,186,8.3,10.6,56,0.00,,FEW047,0.00,VWS V14.01,2013-05-30 22:39:00,
2013-05-30 18:44:00,84.3,66.7,29.87,SSW,194,8.3,8.3,56,0.00,,FEW047,0.00,VWS V14.01,2013-05-30 22:44:00,
2013-05-30 18:49:00,84.5,65.8,29.87,South,187,5.9,7.1,54,0.00,,FEW047,0.00,VWS V14.01,2013-05-30 22:49:00,
2013-05-30 18:54:00,84.3,65.1,29.87,SSW,196,16.5,18.9,53,0.00,,SCT110,0.00,VWS V14.01,2013-05-30 22:54:00,
2013-05-30 18:59:00,83.8,65.2,29.86,SSW,196,7.1,8.3,54,0.00,,SCT110,0.00,VWS V14.01,2013-05-30 22:59:00,
2013-05-30 19:04:00,83.6,65.5,29.86,South,188,11.8,14.2,55,0.00,,SCT110,0.00,VWS V14.01,2013-05-30 23:04:00,
2013-05-30 19:09:00,83.2,66.2,29.86,SSW,199,3.5,4.7,57,0.00,,SCT110,0.00,VWS V14.01,2013-05-30 23:09:00,
2013-05-30 19:14:00,83.0,66.5,29.86,SSW,192,11.8,11.8,58,0.00,,SCT110,0.00,VWS V14.01,2013-05-30 23:14:00,
2013-05-30 19:19:00,83.0,67.0,29.86,SSW,197,4.7,7.1,59,0.00,,SCT110,0.00,VWS V14.01,2013-05-30 23:19:00,
2013-05-30 19:24:00,82.8,66.8,29.86,SSE,165,2.4,8.3,59,0.00,,SCT110,0.00,VWS V14.01,2013-05-30 23:24:00,
2013-05-30 19:29:00,82.8,66.8,29.87,South,189,7.1,7.1,59,0.00,,SCT110,0.00,VWS V14.01,2013-05-30 23:29:00,
2013-05-30 19:34:00,82.8,67.3,29.87,South,169,2.4,2.4,60,0.00,,SCT110,0.00,VWS V14.01,2013-05-30 23:34:00,
2013-05-30 19:39:00,82.8,66.8,29.87,WSW,254,4.7,4.7,59,0.00,,SCT110,0.00,VWS V14.01,2013-05-30 23:39:00,
2013-05-30 19:44:00,82.6,66.6,29.87,SW,225,7.1,7.1,59,0.00,,SCT110,0.00,VWS V14.01,2013-05-30 23:44:00,
2013-05-30 19:49:00,82.6,66.6,29.87,South,186,4.7,5.9,59,0.00,,SCT110,0.00,VWS V14.01,2013-05-30 23:49:00,
2013-05-30 19:54:00,82.4,65.9,29.87,SSW,200,1.2,1.2,58,0.00,,CLR,0.00,VWS V14.01,2013-05-30 23:54:00,
2013-05-30 19:59:00,82.2,65.8,29.87,South,187,2.4,7.1,58,0.00,,CLR,0.00,VWS V14.01,2013-05-30 23:59:00,
2013-05-30 20:04:00,82.2,65.8,29.87,SSW,201,7.1,10.6,58,0.00,,CLR,0.00,VWS V14.01,2013-05-31 00:04:00,
2013-05-30 20:09:00,82.0,65.6,29.88,SW,223,10.6,10.6,58,0.00,,CLR,0.00,VWS V14.01,2013-05-31 00:09:00,
2013-05-30 20:14:00,81.8,65.4,29.88,SW,230,1.2,9.4,58,0.00,,CLR,0.00,VWS V14.01,2013-05-31 00:14:00,
2013-05-30 20:19:00,81.6,65.2,29.88,South,173,7.1,8.3,58,0.00,,CLR,0.00,VWS V14.01,2013-05-31 00:19:00,
2013-05-30 20:25:00,81.4,65.0,29.88,SSE,167,7.1,13.0,58,0.00,,CLR,0.00,VWS V14.01,2013-05-31 00:25:00,
2013-05-30 20:30:00,81.2,64.8,29.88,South,186,5.9,9.4,58,0.00,,CLR,0.00,VWS V14.01,2013-05-31 00:30:00,
2013-05-30 20:35:00,81.1,65.2,29.88,SSW,205,1.2,5.9,59,0.00,,CLR,0.00,VWS V14.01,2013-05-31 00:35:00,
2013-05-30 20:40:00,80.9,65.0,29.88,South,175,5.9,5.9,59,0.00,,CLR,0.00,VWS V14.01,2013-05-31 00:40:00,
2013-05-30 20:45:00,80.9,65.5,29.88,SSW,195,3.5,8.3,60,0.00,,CLR,0.00,VWS V14.01,2013-05-31 00:45:00,
2013-05-30 20:50:00,80.7,65.3,29.88,SSW,211,1.2,5.9,60,0.00,,CLR,0.00,VWS V14.01,2013-05-31 00:50:00,
2013-05-30 20:55:00,80.5,65.2,29.88,SW,221,1.2,4.7,60,0.00,,CLR,0.00,VWS V14.01,2013-05-31 00:55:00,
2013-05-30 21:00:00,80.3,65.4,29.88,SSE,153,2.4,7.1,61,0.00,,CLR,0.00,VWS V14.01,2013-05-31 01:00:00,
2013-05-30 21:05:00,80.1,65.3,29.88,South,170,0.0,4.7,61,0.00,,CLR,0.00,VWS V14.01,2013-05-31 01:05:00,
2013-05-30 21:10:00,79.9,65.6,29.88,SE,137,5.9,5.9,62,0.00,,CLR,0.00,VWS V14.01,2013-05-31 01:10:00,
2013-05-30 21:15:00,79.6,65.3,29.88,SE,134,0.0,1.2,62,0.00,,CLR,0.00,VWS V14.01,2013-05-31 01:15:00,
2013-05-30 21:20:00,79.4,65.5,29.88,SSW,195,0.0,2.4,63,0.00,,CLR,0.00,VWS V14.01,2013-05-31 01:20:00,
2013-05-30 21:25:00,79.2,65.8,29.89,SE,140,5.9,5.9,64,0.00,,CLR,0.00,VWS V14.01,2013-05-31 01:25:00,
2013-05-30 21:30:00,79.0,65.6,29.89,SSE,151,4.7,7.1,64,0.00,,CLR,0.00,VWS V14.01,2013-05-31 01:30:00,
2013-05-30 21:35:00,78.8,65.9,29.89,South,177,5.9,10.6,65,0.00,,CLR,0.00,VWS V14.01,2013-05-31 01:35:00,
2013-05-30 21:40:00,78.6,65.7,29.89,SE,126,2.4,5.9,65,0.00,,CLR,0.00,VWS V14.01,2013-05-31 01:40:00,
2013-05-30 21:45:00,78.6,66.2,29.89,South,177,4.7,9.4,66,0.00,,CLR,0.00,VWS V14.01,2013-05-31 01:45:00,
2013-05-30 21:50:00,78.5,66.1,29.90,South,179,5.9,9.4,66,0.00,,CLR,0.00,VWS V14.01,2013-05-31 01:50:00,
2013-05-30 21:55:00,78.5,66.5,29.90,SSW,194,0.0,0.0,67,0.00,,CLR,0.00,VWS V14.01,2013-05-31 01:55:00,
2013-05-30 22:00:00,78.3,66.3,29.90,SSE,147,1.2,4.7,67,0.00,,CLR,0.00,VWS V14.01,2013-05-31 02:00:00,
2013-05-30 22:05:00,78.1,66.1,29.90,SE,126,4.7,4.7,67,0.00,,CLR,0.00,VWS V14.01,2013-05-31 02:05:00,
2013-05-30 22:10:00,78.1,66.6,29.90,SSE,168,4.7,5.9,68,0.00,,CLR,0.00,VWS V14.01,2013-05-31 02:10:00,
2013-05-30 22:15:00,77.9,66.4,29.90,SSE,151,7.1,10.6,68,0.00,,CLR,0.00,VWS V14.01,2013-05-31 02:15:00,
2013-05-30 22:20:00,77.7,65.7,29.91,SSE,152,8.3,8.3,67,0.00,,CLR,0.00,VWS V14.01,2013-05-31 02:20:00,
2013-05-30 22:25:00,77.7,65.3,29.90,SE,136,8.3,8.3,66,0.00,,CLR,0.00,VWS V14.01,2013-05-31 02:25:00,
2013-05-30 22:30:00,77.7,65.3,29.91,South,186,15.3,15.3,66,0.00,,CLR,0.00,VWS V14.01,2013-05-31 02:30:00,
2013-05-30 22:35:00,77.9,65.5,29.91,SSW,197,5.9,9.4,66,0.00,,CLR,0.00,VWS V14.01,2013-05-31 02:35:00,
2013-05-30 22:40:00,77.9,65.5,29.91,South,182,5.9,5.9,66,0.00,,CLR,0.00,VWS V14.01,2013-05-31 02:40:00,
2013-05-30 22:45:00,77.9,65.5,29.91,SE,136,7.1,7.1,66,0.00,,CLR,0.00,VWS V14.01,2013-05-31 02:45:00,
2013-05-30 22:50:00,77.7,65.3,29.91,SSE,151,7.1,7.1,66,0.00,,CLR,0.00,VWS V14.01,2013-05-31 02:50:00,
2013-05-30 22:55:00,77.7,65.3,29.91,SSE,155,1.2,2.4,66,0.00,,CLR,0.00,VWS V14.01,2013-05-31 02:55:00,
2013-05-30 23:00:00,77.6,65.2,29.91,South,170,1.2,1.2,66,0.00,,CLR,0.00,VWS V14.01,2013-05-31 03:00:00,
2013-05-30 23:05:00,77.4,67.2,29.92,South,180,1.2,3.5,71,0.00,,CLR,0.00,VWS V14.01,2013-05-31 03:05:00,
2013-05-30 23:10:00,77.4,65.9,29.91,SSE,156,4.7,4.7,68,0.00,,CLR,0.00,VWS V14.01,2013-05-31 03:10:00,
2013-05-30 23:15:00,77.2,66.1,29.91,SE,139,8.3,9.4,69,0.00,,CLR,0.00,VWS V14.01,2013-05-31 03:15:00,
2013-05-30 23:20:00,77.0,65.9,29.91,SSE,148,2.4,7.1,69,0.00,,CLR,0.00,VWS V14.01,2013-05-31 03:20:00,
2013-05-30 23:25:00,76.8,66.2,29.91,ESE,118,2.4,9.4,70,0.00,,CLR,0.00,VWS V14.01,2013-05-31 03:25:00,
2013-05-30 23:30:00,76.7,66.1,29.91,SE,141,8.3,10.6,70,0.00,,CLR,0.00,VWS V14.01,2013-05-31 03:30:00,
2013-05-30 23:35:00,76.5,66.3,29.91,SE,130,7.1,8.3,71,0.00,,CLR,0.00,VWS V14.01,2013-05-31 03:35:00,
2013-05-30 23:40:00,76.3,66.1,29.91,SSE,153,5.9,7.1,71,0.00,,CLR,0.00,VWS V14.01,2013-05-31 03:40:00,
2013-05-30 23:45:00,76.1,66.3,29.91,SSE,158,4.7,8.3,72,0.00,,CLR,0.00,VWS V14.01,2013-05-31 03:45:00,
2013-05-30 23:50:00,76.0,66.6,29.91,SSE,150,8.3,8.3,73,0.00,,SCT075,0.00,VWS V14.01,2013-05-31 03:50:00,
2013-05-30 23:56:00,75.8,66.4,29.91,SSW,194,4.7,8.3,73,0.00,,SCT075,0.00,VWS V14.01,2013-05-31 03:56:00,